CZ-3C DEB, 40819

Orbit data source: Space-Track

CZ-3C DEB, 40819 is space debris in HEO originally from a launch on Sun, 31 Oct 2010 UTC launched from the Xichang Space Center, China (XSC). Debris objects in space refer to the collection of defunct objects orbiting the Earth. Examples of debris include non-operational satellites, rocket bodies, and fragments generated from explosions, collisions, or faulty payload assembly.

Loading next visibility...
Identifier
40819, 2010-057AL
Orbit
HEO
Country
Flag of CNCN / PRC
Related business
Manufacturer
CALT
Mission
Spacecraft
Bus & Motor
Unknown
Mass
Unknown
Launch date (UTC)
2010-10-31 (15 years ago)
Launch vehicle
Unknown
Launch site
Xichang Space Center, China (XSC)
Object type
Payload
Rocket body
Debris
Shape & HBR
Unknown shape, 0.3 m
Radar Cross Section
Medium (>0.1 m² and <1 m²)

Expand to show TLE details & history
Last TLE update: 3 days ago

TLE from 3 days ago
0 CZ-3C DEB
1 40819U 10057AL  25347.31865627  .00002310  00000-0  17343-1 0  9999
2 40819  20.7392  51.0546 7139395 239.3577  32.4203  2.32313533 92371
Epoch: 2025-12-13T07:38Z
TLE epoch observation values (Epoch: 2025-12-13T07:38:51.901Z)
Latitude
0.00002°
Longitude
-145.89868°
Altitude
12,198.581 km
Speed
5.134 km/s
True Right ascension
03h 24m 15s
True Declination
0° 00' 00"
Sunlit
Object was in daylight at epoch
Visualization orbit readout
Latitude
Unknown
Longitude
Unknown
Altitude
Unknown
Speed
Unknown
Apparent Right ascension
Unknown
Apparent Declination
Unknown
Sunlit
N/A
Visualization observer readout
Local Sidereal Time
19:00:20
Azimuth
Unknown
Elevation
Unknown
Doppler factor
Unknown
Orbital elements
Apogee altitude
34,903.723 km
Perigee altitude
511.902 km
Semi-major axis
24,085.95 km
Eccentricity
0.71394
Inclination
20.7392°
RAAN
51.0546°
Arg. of periapsis
239.3577°
True anomaly
120.51192°
Mean anomaly
32.4203°
Eccentric anomaly
71.1268°
Mean motion
0.58063 °/min
Orbital period
620.02 mins
BSTAR
0.017343
Loading maneuver chart data...
Computing Atmospheric mass density...
Loading historical data...
Loading historical data...
Loading historical data...
Loading historical data...
Loading historical data...
Loading historical data...
Loading historical data...

Documentation

Showing up to 5 results
|